OPTUS 10

Last updated on Sun Apr 12 2026 00:02:53 GMT+0000 (Coordinated Universal Time)

1 40146U 14054A 26101.35322594 -.00000146 00000+0 00000+0 0 9992 2 40146 0.0649 300.0424 0001919 83.1070 99.5897 1.00271629 42368
UTC large
Height (km)
Speed (km/s)
/
Latitude / Longitude
Inclination (degrees)
Orbital Period (minutes)
Azimuth
Elevation
Range (km)
Doppler Factor

Next 0 passes for location: London (51.5072 / 0.1276)

Sorry there are no passes over London.
OPTUS 10